Flag for Brazil Weather past 2 weeks in Manaus, Amazonas, Brazil

Now
88 °F

Scattered clouds.


Feels Like: 94 °F
Forecast: 76 / 91 °F
Wind: 5 mph from South

Location: Manaus Aeroporto

Current Time: Oct 20, 2014 at 1:56:48 PM

Latest Report: Oct 20, 2014 at 1:00 PM


Visibility: N/A

Pressure: 29.86 "Hg

Humidity: 59%

Dew point: 72 °F

Location of ManausLocation

Historic Weather in Manaus — Graph

°F

Manaus temperature yesterday

Maximum temperature yesterday: 90 °F (at 3:00 PM)
Minimum temperature yesterday: 75 °F (at 12:00 AM)
Average temperature yesterday: 80 °F

Past Weeks' High & Low Weather Summary

 TemperatureHumidityPressure
High93 °F (Oct 8, 2:00 PM)94% (Oct 8, 12:00 AM)30.01 "Hg (Oct 8, 12:00 AM)
Low72 °F (Oct 13, 4:00 AM)49% (Oct 9, 12:00 PM)29.68 "Hg (Oct 8, 4:00 PM)
Average81 °F79%29.86 "Hg
* Reported Oct 5 12:00 Noon — Oct 20 12:00 Noon, Manaus, Weather by CustomWeather, © 2014

Note: Actual official high and low records may vary slightly from our data, if they occured in-between our weather recording intervals... More about our weather records

Advertising

Manaus weather history for previous 24 hours

 ConditionsComfort  
Time TempWeatherWind HumidityBarometerVisibility
12:00 PM
Oct 20
88 °FScattered clouds.6 mph59%29.89 "HgN/A
11:00 AM86 °FScattered clouds.5 mph66%29.92 "HgN/A
10:00 AM82 °FBroken clouds.3 mph74%29.95 "HgN/A
9:00 AM82 °FScattered clouds.No wind70%29.95 "HgN/A
8:00 AM79 °FScattered clouds.7 mph79%29.95 "HgN/A
7:00 AM77 °FScattered showers. Partly sunny.12 mph89%29.92 "HgN/A
6:00 AM77 °FPassing clouds.2 mph89%29.86 "HgN/A
5:00 AM79 °FPassing clouds.3 mph84%29.86 "HgN/A
4:00 AM79 °FClear.3 mph84%29.86 "Hg10 mi
3:00 AM79 °FClear.2 mph84%29.86 "Hg10 mi
2:00 AM79 °FClear.3 mph84%29.86 "Hg10 mi
1:00 AM79 °FClear.2 mph84%29.86 "Hg10 mi
11:00 PM
Oct 19
79 °FClear.2 mph79%29.86 "Hg10 mi
10:00 PM79 °FPassing clouds.2 mph79%29.86 "HgN/A
9:00 PM81 °FPassing clouds.6 mph74%29.86 "HgN/A
8:00 PM81 °FPassing clouds.5 mph70%29.83 "HgN/A
7:00 PM81 °FThundershowers. Passing clouds.5 mph66%N/AN/A
6:00 PM81 °FPassing clouds.2 mph66%29.80 "HgN/A
5:00 PM82 °FThunderstorms. Broken clouds.7 mph70%29.80 "HgN/A
4:00 PM82 °FThunderstorms. Scattered clouds.8 mph66%29.80 "HgN/A
3:00 PM90 °FThunderstorms. Scattered clouds.6 mph63%29.80 "HgN/A
2:00 PM88 °FScattered clouds.5 mph62%29.83 "HgN/A
1:00 PM88 °FBroken clouds.7 mph66%29.86 "HgN/A
Weather by CustomWeather, © 2014

See weather overviewHow to use our weather pages